Date,TemperatureHighF,TemperatureAvgF,TemperatureLowF,DewpointHighF,DewpointAvgF,DewpointLowF,HumidityHigh,HumidityAvg,HumidityLow,PressureMaxIn,PressureMinIn,WindSpeedMaxMPH,WindSpeedAvgMPH,GustSpeedMaxMPH,PrecipitationSumIn
2013-3-1,54.0,47.4,43.0,38.0,32.9,30.0,77,58,44,0.00,40.00,7,4,15,0.00
2013-3-2,48.0,40.8,31.0,36.0,30.2,26.0,91,68,44,0.00,40.00,11,5,22,0.00
2013-3-3,44.0,37.2,28.0,30.0,25.7,23.0,84,65,43,0.00,40.00,10,5,21,0.00
2013-3-4,62.0,43.0,27.0,41.0,27.1,19.0,89,61,23,0.00,40.00,6,2,12,0.00
2013-3-5,74.0,59.3,38.0,56.0,44.5,35.0,90,62,29,0.00,40.00,7,4,20,0.00
2013-3-6,65.0,48.6,40.0,57.0,31.4,25.0,88,53,34,0.00,40.00,12,8,27,0.10
2013-3-7,63.0,45.1,29.0,41.0,32.3,26.0,90,66,33,0.00,40.00,5,2,12,0.00
2013-3-8,64.0,47.6,32.0,44.0,38.3,30.0,92,73,46,0.00,40.00,7,2,13,0.00
2013-3-9,65.0,48.8,32.0,45.0,36.7,30.0,92,68,35,0.00,40.00,6,3,13,0.00
2013-3-10,72.0,56.2,40.0,56.0,47.4,38.0,93,75,47,0.00,40.00,8,3,19,0.00
2013-3-11,73.0,60.5,48.0,61.0,52.4,46.0,94,77,50,0.00,40.00,7,3,13,0.00
2013-3-12,66.0,62.2,52.0,63.0,56.0,43.0,95,81,54,0.00,40.00,7,3,14,0.16
2013-3-13,68.0,55.0,42.0,44.0,34.7,26.0,82,51,22,0.00,40.00,10,5,21,0.01
2013-3-14,60.0,46.8,33.0,36.0,28.2,24.0,80,52,26,0.00,40.00,6,3,14,0.00
2013-3-15,72.0,51.1,32.0,43.0,34.3,29.0,90,61,25,0.00,40.00,6,3,14,0.00
2013-3-16,80.0,62.2,43.0,49.0,42.4,38.0,88,53,27,0.00,40.00,10,4,19,0.00
2013-3-17,79.0,63.8,48.0,56.0,50.0,44.0,94,65,34,0.00,40.00,6,3,14,0.00
2013-3-18,76.0,65.3,58.0,63.0,58.5,55.0,95,80,60,0.00,40.00,5,2,11,0.07
2013-3-19,76.0,63.4,51.0,60.0,55.7,49.0,95,78,43,0.00,40.00,9,4,16,0.23
2013-3-20,64.0,52.8,43.0,49.0,42.1,39.0,93,71,40,0.00,40.00,7,2,16,0.01
2013-3-21,63.0,48.0,35.0,40.0,30.8,22.0,92,60,21,0.00,40.00,11,4,20,0.00
2013-3-22,64.0,50.2,38.0,45.0,34.0,24.0,82,56,36,0.00,40.00,6,3,12,0.00
2013-3-23,68.0,55.5,47.0,64.0,52.0,44.0,96,88,75,0.00,40.00,7,3,14,1.16
2013-3-24,84.0,68.7,56.0,73.0,61.7,55.0,97,82,37,0.00,40.00,9,4,22,2.05
2013-3-25,63.0,54.6,45.0,61.0,35.1,22.0,93,51,26,0.00,40.00,13,8,26,0.11
2013-3-26,53.0,43.8,34.0,31.0,27.0,25.0,79,53,36,0.00,40.00,10,5,24,0.00
2013-3-27,60.0,43.2,31.0,30.0,28.8,26.0,89,63,30,0.00,40.00,6,3,14,0.00
2013-3-28,65.0,57.8,44.0,41.0,32.3,26.0,86,44,24,0.00,40.00,6,3,13,0.00
2013-3-29,72.0,52.9,36.0,46.0,38.2,29.0,92,65,21,0.00,40.00,7,2,12,0.00
2013-3-30,77.0,60.5,45.0,50.0,43.0,36.0,92,60,23,0.00,40.00,7,2,17,0.00
2013-3-31,80.0,64.3,51.0,56.0,49.8,-99.9,84,66,41,0.00,40.00,7,3,16,0.00